[[{"header":{"parameterUnit":"m.s-1","parameterCategory":1,"la1":30.2991,"la2":30.254,"lo1":-89.0895,"lo2":-89.0444,"dx":0.0017,"dy":0.0017,"nx":28,"ny":28,"refTime":"2022-12-30T15:00:00:Z","depth":0,"parameterNumber":2,"parameterNumberName":"U-component_of_WINDS"},"data":[0,0,0,0,0,0,0,0,0,0,0,0,0,0,0,0,0,0,0,0,0,0,0,0,0,0,0,0,0,0,0,0,0,0,0,0,0,0,0,0,0,0,0,0,0,0,0,0,0,0,0,0,0,0,0,0,0,0,-3.11,-3.1101,0,-3.1201,-3.1202,-3.1203,-3.1152,-3.1149,-3.1147,-3.1144,-3.1248,-3.1253,-3.1258,0,0,0,0,0,0,0,0,0,0,0,0,0,-3.0865,-3.0869,-3.11,-3.1101,-3.1103,-3.1201,-3.1202,-3.1204,-3.1152,-3.1149,-3.1146,-3.1143,-3.1246,-3.1252,-3.1259,0,0,0,0,0,0,0,0,0,0,0,0,0,-3.0966,-3.0871,-3.11,-3.1089,-3.1089,-3.1201,-3.1202,-3.1204,-3.1153,-3.1149,-3.1145,-3.1141,-3.1244,-3.1252,-3.1259,-3.1388,0,0,-3.1283,-3.1287,0,0,0,0,0,0,0,0,-3.0961,-3.0975,-3.1089,-3.109,-3.109,-3.116,-3.1157,-3.1266,-3.1154,-3.1129,-3.1144,-3.1139,-3.1222,-3.1231,-3.1259,-3.1393,-3.1397,-3.1284,-3.1289,-3.1292,-3.1294,0,0,0,0,0,0,0,-3.0954,-3.0971,-3.114,-3.1091,-3.1092,-3.1079,-3.109,-3.1178,-3.1196,-3.1131,-3.1127,-3.114,-3.1221,-3.1251,-3.1261,-3.1399,-3.1284,-3.1291,-3.1296,-3.1299,-3.1646,-3.165,0,0,0,0,0,0,-3.0947,-3.0965,-3.1137,-3.1143,-3.1014,-3.1087,-3.1098,-3.1141,-3.1195,-3.12,-3.1143,-3.1137,-3.124,-3.1252,-3.1264,-3.1421,-3.1292,-3.13,-3.1304,-3.1641,-3.1647,-3.1651,0,0,0,0,0,0,-3.0942,-3.0963,-3.1133,-3.1053,-3.1074,-3.1095,-3.1144,-3.1146,-3.1176,-3.1205,-3.1208,-3.1171,-3.1237,-3.1253,-3.1358,-3.1423,-3.1303,-3.131,-3.1636,-3.1643,-3.1649,-3.1733,0,0,0,0,0,0,-3.0936,-3.0961,-3.101,-3.1055,-3.1078,-3.1225,-3.1148,-3.115,-3.1189,-3.1182,-3.1231,-3.1236,-3.1235,-3.1347,-3.1366,-3.1432,-3.1316,-3.163,-3.1639,-3.1647,-3.1724,-3.1742,-3.1756,0,0,0,0,0,-3.0927,-3.1029,-3.1013,-3.1034,-3.1139,-3.1228,-3.1242,-3.124,-3.1195,-3.1245,-3.1263,-3.1234,-3.1413,-3.1358,-3.1379,-3.1449,-3.1626,-3.1636,-3.1646,-3.1717,-3.1738,-3.1756,0,0,0,0,0,0,-3.0991,-3.1035,-3.1017,-3.1136,-3.1179,-3.122,-3.1282,-3.1262,-3.1318,-3.131,-3.1304,-3.1316,-3.1425,-3.1447,-3.1385,-3.1577,-3.1512,-3.1527,-3.1559,-3.1579,-3.1595,-3.1589,-3.1323,0,0,0,0,0,-3.1019,-3.1088,-3.1122,-3.1223,-3.1246,-3.1261,-3.1299,-3.1294,-3.1338,-3.1356,-3.1382,-3.1427,-3.1493,-3.1537,-3.1599,-3.1726,-3.1738,-3.1785,-3.1801,-3.1814,-3.1827,-3.1899,-3.1921,-3.1685,-3.1685,-3.1684,0,0,-3.1077,-3.111,-3.1153,-3.1237,-3.127,-3.1342,-3.1276,-3.1354,-3.1408,-3.1368,-3.1469,-3.149,-3.1539,-3.1657,-3.171,-3.1678,-3.1895,-3.1827,-3.1837,-3.1844,-3.1912,-3.1934,-3.1954,-3.1691,-3.169,-3.1689,0,0,-3.1221,-3.1251,-3.1341,-3.1375,-3.1426,-3.1435,-3.1457,-3.1501,-3.1514,-3.1615,-3.1587,-3.1651,-3.1765,-3.1802,-3.1836,-3.1995,-3.1972,-3.2016,-3.21,-3.217,-3.2188,-3.2205,-3.2265,-3.2286,-3.2029,-3.2029,-3.2029,0,-3.1288,-3.1395,-3.1389,-3.1471,-3.151,-3.1477,-3.1568,-3.1602,-3.167,-3.1698,-3.1662,-3.1806,-3.1836,-3.1963,-3.2002,-3.203,-3.2055,-3.2011,-3.2186,-3.2203,-3.2218,-3.2275,-3.2297,-3.2034,-3.2033,-3.2033,-3.2032,0,-3.1475,-3.155,-3.1616,-3.1684,-3.173,-3.1816,-3.1825,-3.1872,-3.1863,-3.1876,-3.1981,-3.2017,-3.2087,-3.2116,-3.2107,-3.2243,-3.2222,-3.2186,-3.2122,-3.2246,-3.2299,-3.2321,-3.2042,-3.204,-3.2038,-3.2037,0,0,-3.1662,-3.1727,-3.1752,-3.1784,-3.1838,-3.1896,-3.1981,-3.205,-3.2092,-3.214,-3.2213,-3.231,-3.2278,-3.2316,-3.2311,-3.2372,-3.25,-3.2329,-3.233,-3.2362,-3.2654,-3.2683,-3.2708,-3.2483,-3.2488,-3.2491,-3.2651,0,-3.1812,-3.1961,-3.196,-3.2098,-3.2169,-3.2139,-3.2214,-3.2255,-3.227,-3.2333,-3.2348,-3.2419,-3.237,-3.2393,-3.2452,-3.2472,-3.2559,-3.246,-3.2553,-3.2556,-3.2544,-3.2735,-3.2766,-3.2915,-3.2671,-3.2675,-3.2677,0,-3.2006,-3.2063,-3.2209,-3.2255,-3.2284,-3.2351,-3.2416,-3.2475,-3.2522,-3.2529,-3.2573,-3.2559,-3.2647,-3.2578,-3.27,-3.2633,-3.267,-3.2686,-3.2692,-3.2702,-3.2626,-3.2754,-3.2962,-3.2986,-3.271,-3.2707,-3.2705,0,-3.2132,-3.2244,-3.2346,-3.2374,-3.2429,-3.2478,-3.2503,-3.2546,-3.2589,-3.2645,-3.2673,-3.2738,-3.2774,-3.2826,-3.283,-3.278,-3.2954,-3.2885,-3.2964,-3.2964,-3.3004,-3.3001,-3.3224,-3.3024,-3.3023,-3.3023,-3.3022,0,-3.2301,-3.2392,-3.2404,-3.2467,-3.2569,-3.2567,-3.2668,-3.2688,-3.2728,-3.2795,-3.2772,-3.2836,-3.2838,-3.2903,-3.2907,-3.3009,-3.3025,-3.3034,-3.3034,-3.3038,-3.3037,-3.3064,-3.3055,-3.3029,-3.3028,-3.3026,-3.3025,0,-3.2459,-3.247,-3.2581,-3.2624,-3.2638,-3.2711,-3.2749,-3.281,-3.2823,-3.2909,-3.2929,-3.2949,-3.3026,-3.3035,-3.3123,-3.3126,-3.325,-3.3238,-3.3235,-3.3234,-3.3313,-3.3306,-3.3562,-3.3597,-3.3372,-3.3374,-3.3375,0,-3.2567,-3.2637,-3.2689,-3.2733,-3.2761,-3.2832,-3.2875,-3.2876,-3.2922,-3.2982,-3.3037,-3.3111,-3.317,-3.3294,-3.3317,-3.3385,-3.3376,-3.3461,-3.3386,-3.3388,-3.3381,-3.3378,-3.3386,-3.3476,-3.3479,-3.3481,-3.3483,0,-3.2758,-3.2761,-3.2825,-3.2892,-3.2945,-3.2997,-3.3046,-3.3084,-3.309,-3.3144,-3.3222,-3.3268,-3.336,-3.3435,-3.3502,-3.3528,-3.3508,-3.3506,-3.3528,-3.3533,-3.353,-3.3535,-3.3277,-3.35,-3.3499,-3.3497,-3.3496,-3.3496,-3.2897,-3.2958,-3.3005,-3.3078,-3.3115,-3.3162,-3.3223,-3.3244,-3.3309,-3.3384,-3.338,-3.3467,-3.3514,-3.3602,-3.3634,-3.3702,-3.3674,-3.3706,-3.3714,-3.3723,-3.3732,-3.3517,-3.3714,-3.3714,-3.3713,-3.3713,-3.3712,0,-3.3089,-3.3118,-3.3185,-3.3256,-3.3313,-3.3288,-3.3342,-3.3392,-3.3469,-3.3515,-3.3574,-3.3665,-3.3738,-3.3767,-3.3838,-3.3888,-3.388,-3.3907,-3.3904,-3.3911,-3.3752,-3.3727,-3.3912,-3.3912,-3.3912,-3.3912,-3.3912,-3.3912,-3.3197,-3.3301,-3.3309,-3.3432,-3.346,-3.3546,-3.3579,-3.3623,-3.366,-3.3763,-3.3823,-3.3842,-3.3882,-3.3956,-3.4022,-3.4029,-3.4057,-3.4089,-3.4092,-3.3942,-3.3922,-3.3903,-3.388,-3.4094,-3.4094,-3.4246,-3.4247,-3.4248]},{"header":{"parameterUnit":"m.s-1","parameterCategory":1,"la1":30.2991,"la2":30.254,"lo1":-89.0895,"lo2":-89.0444,"dx":0.0017,"dy":0.0017,"nx":28,"ny":28,"refTime":"2022-12-30T15:00:00:Z","depth":0,"parameterNumber":3,"parameterNumberName":"V-component_of_WINDS"},"data":[0,0,0,0,0,0,0,0,0,0,0,0,0,0,0,0,0,0,0,0,0,0,0,0,0,0,0,0,0,0,0,0,0,0,0,0,0,0,0,0,0,0,0,0,0,0,0,0,0,0,0,0,0,0,0,0,0,0,-2.3103,-2.3103,0,-2.318,-2.3181,-2.3182,-2.3149,-2.3147,-2.3145,-2.3143,-2.3224,-2.3228,-2.3231,0,0,0,0,0,0,0,0,0,0,0,0,0,-2.2929,-2.2932,-2.3102,-2.3103,-2.3104,-2.318,-2.3181,-2.3182,-2.3149,-2.3147,-2.3145,-2.3143,-2.3223,-2.3227,-2.3232,0,0,0,0,0,0,0,0,0,0,0,0,0,-2.3005,-2.2933,-2.3102,-2.3097,-2.3098,-2.3179,-2.3181,-2.3182,-2.315,-2.3147,-2.3144,-2.3142,-2.3221,-2.3227,-2.3232,-2.3324,0,0,-2.325,-2.3253,0,0,0,0,0,0,0,0,-2.3001,-2.3011,-2.3097,-2.3098,-2.3098,-2.3152,-2.3149,-2.323,-2.315,-2.313,-2.3143,-2.314,-2.3202,-2.3209,-2.323,-2.3328,-2.3331,-2.3251,-2.3254,-2.3257,-2.3258,0,0,0,0,0,0,0,-2.2995,-2.3008,-2.3133,-2.3098,-2.3099,-2.3092,-2.3099,-2.3164,-2.3181,-2.3132,-2.3129,-2.3139,-2.3202,-2.3225,-2.3232,-2.3333,-2.3251,-2.3256,-2.3259,-2.3262,-2.3513,-2.3516,0,0,0,0,0,0,-2.299,-2.3004,-2.3131,-2.3135,-2.3041,-2.3097,-2.3106,-2.3137,-2.318,-2.3184,-2.3141,-2.3137,-2.3216,-2.3225,-2.3234,-2.3347,-2.3257,-2.3262,-2.3265,-2.351,-2.3514,-2.3517,0,0,0,0,0,0,-2.2986,-2.3001,-2.3127,-2.3069,-2.3084,-2.3103,-2.3139,-2.314,-2.3163,-2.3187,-2.319,-2.3161,-2.3214,-2.3226,-2.3303,-2.335,-2.3265,-2.327,-2.3506,-2.3511,-2.3516,-2.3572,0,0,0,0,0,0,-2.2981,-2.3,-2.3035,-2.307,-2.3088,-2.3194,-2.3142,-2.3144,-2.3173,-2.3168,-2.3207,-2.321,-2.3213,-2.3294,-2.3309,-2.3356,-2.3275,-2.3502,-2.3508,-2.3514,-2.3566,-2.3578,-2.3589,0,0,0,0,0,-2.2975,-2.3047,-2.3037,-2.3052,-2.3131,-2.3197,-2.3207,-2.3208,-2.3177,-2.3212,-2.3228,-2.3209,-2.3342,-2.3302,-2.3318,-2.3368,-2.3499,-2.3507,-2.3514,-2.3561,-2.3576,-2.3588,0,0,0,0,0,0,-2.3016,-2.3051,-2.304,-2.3126,-2.3159,-2.3191,-2.3236,-2.3223,-2.3265,-2.3259,-2.3259,-2.3268,-2.3348,-2.3365,-2.3321,-2.3461,-2.3416,-2.3427,-2.3447,-2.3461,-2.3472,-2.3467,-2.3279,0,0,0,0,0,-2.3036,-2.3085,-2.3113,-2.3186,-2.3203,-2.3217,-2.3245,-2.3243,-2.3277,-2.3291,-2.3313,-2.3347,-2.3397,-2.3429,-2.3476,-2.3568,-2.3578,-2.361,-2.3621,-2.3631,-2.364,-2.3694,-2.3709,-2.3541,-2.3541,-2.3541,0,0,-2.3075,-2.3101,-2.3132,-2.3195,-2.322,-2.3273,-2.3229,-2.3285,-2.3325,-2.33,-2.3374,-2.3391,-2.343,-2.3515,-2.3554,-2.3532,-2.3689,-2.364,-2.3647,-2.3652,-2.3703,-2.3719,-2.3733,-2.3546,-2.3545,-2.3544,0,0,-2.3176,-2.3199,-2.3263,-2.329,-2.3329,-2.3338,-2.3353,-2.3388,-2.3399,-2.3473,-2.3456,-2.3504,-2.3588,-2.3617,-2.3643,-2.3757,-2.3742,-2.3772,-2.3831,-2.3883,-2.3896,-2.3908,-2.3952,-2.3967,-2.3781,-2.3781,-2.3781,0,-2.322,-2.3299,-2.3298,-2.3358,-2.3387,-2.3366,-2.3433,-2.3458,-2.3511,-2.3532,-2.3506,-2.3614,-2.3638,-2.3732,-2.376,-2.3781,-2.38,-2.3768,-2.3894,-2.3906,-2.3917,-2.3959,-2.3975,-2.3785,-2.3785,-2.3784,-2.3784,0,-2.3354,-2.3408,-2.3456,-2.3508,-2.3542,-2.3605,-2.3614,-2.3649,-2.3645,-2.3657,-2.3734,-2.3763,-2.3816,-2.3838,-2.3833,-2.3932,-2.3918,-2.3893,-2.3849,-2.3937,-2.3976,-2.3992,-2.379,-2.3789,-2.3788,-2.3787,0,0,-2.3482,-2.3534,-2.3552,-2.3576,-2.3619,-2.3661,-2.3724,-2.3776,-2.3808,-2.3844,-2.3899,-2.3972,-2.395,-2.398,-2.3978,-2.4024,-2.4116,-2.3994,-2.3995,-2.4018,-2.423,-2.425,-2.4268,-2.4105,-2.4108,-2.4111,-2.4227,0,-2.3588,-2.3697,-2.3699,-2.38,-2.3852,-2.3834,-2.3889,-2.3922,-2.3935,-2.3982,-2.3996,-2.4049,-2.4015,-2.4034,-2.4077,-2.4095,-2.4159,-2.4086,-2.4158,-2.4161,-2.4151,-2.4288,-2.4308,-2.4417,-2.4242,-2.4245,-2.4247,0,-2.3725,-2.3768,-2.3875,-2.3912,-2.3934,-2.3983,-2.4033,-2.4077,-2.4114,-2.4121,-2.4155,-2.4148,-2.4213,-2.4165,-2.4257,-2.4208,-2.4238,-2.4251,-2.4255,-2.4264,-2.4211,-2.4303,-2.4451,-2.4469,-2.427,-2.4268,-2.4267,0,-2.3812,-2.3896,-2.3971,-2.3992,-2.4037,-2.4072,-2.4093,-2.4127,-2.416,-2.4203,-2.4225,-2.4275,-2.4303,-2.4343,-2.4351,-2.4315,-2.4444,-2.4396,-2.4454,-2.4454,-2.4484,-2.4482,-2.4642,-2.4498,-2.4498,-2.4498,-2.4497,0,-2.3931,-2.3998,-2.4011,-2.4058,-2.4133,-2.4134,-2.4209,-2.4226,-2.4258,-2.4308,-2.4295,-2.4343,-2.4349,-2.44,-2.4406,-2.4483,-2.4495,-2.4504,-2.4505,-2.4507,-2.4506,-2.4527,-2.4521,-2.4502,-2.4501,-2.45,-2.4499,0,-2.4041,-2.4052,-2.4134,-2.417,-2.4181,-2.4235,-2.4266,-2.4311,-2.4323,-2.4388,-2.4404,-2.4423,-2.4482,-2.4493,-2.4562,-2.4566,-2.466,-2.4652,-2.4647,-2.4647,-2.4706,-2.4701,-2.4887,-2.4913,-2.4749,-2.4751,-2.4752,0,-2.4117,-2.4168,-2.421,-2.4244,-2.4266,-2.4319,-2.4353,-2.4357,-2.4392,-2.444,-2.4481,-2.4538,-2.4585,-2.468,-2.4701,-2.4755,-2.475,-2.4812,-2.4758,-2.4759,-2.4755,-2.4753,-2.476,-2.4823,-2.4825,-2.4826,-2.4827,0,-2.4253,-2.4256,-2.4305,-2.4356,-2.4397,-2.4437,-2.4476,-2.4504,-2.4513,-2.4554,-2.4614,-2.4651,-2.4722,-2.4781,-2.4835,-2.4857,-2.4845,-2.4844,-2.486,-2.4864,-2.486,-2.4866,-2.4678,-2.484,-2.4839,-2.4838,-2.4837,-2.4836,-2.435,-2.4396,-2.4434,-2.4489,-2.4518,-2.4555,-2.4601,-2.4619,-2.4669,-2.4728,-2.4727,-2.4794,-2.4833,-2.4904,-2.493,-2.4984,-2.4964,-2.4988,-2.4994,-2.5001,-2.5008,-2.485,-2.4993,-2.4993,-2.4992,-2.4992,-2.4992,0,-2.4488,-2.4511,-2.4562,-2.4617,-2.4661,-2.4645,-2.4687,-2.4726,-2.4785,-2.4822,-2.4868,-2.4939,-2.4996,-2.5022,-2.5079,-2.5117,-2.5114,-2.5132,-2.5131,-2.5137,-2.502,-2.5002,-2.5135,-2.5135,-2.5135,-2.5135,-2.5135,-2.5135,-2.4564,-2.4642,-2.465,-2.4744,-2.4767,-2.4832,-2.4858,-2.4893,-2.4923,-2.5003,-2.505,-2.5067,-2.51,-2.516,-2.5212,-2.5219,-2.5242,-2.5264,-2.5268,-2.5159,-2.5145,-2.5131,-2.5114,-2.5268,-2.5268,-2.5381,-2.5382,-2.5383]}]]